THOR BURNER 2 R/B, 2877

Orbit data source: Space-Track

THOR BURNER 2 R/B, 2877 is space debris in LEO originally from a launch on Thu, 29 Jun 1967 UTC launched from the Air Force Western Test Range (AFWTR). Debris objects in space refer to the collection of defunct objects orbiting the Earth. Examples of debris include non-operational satellites, rocket bodies, and fragments generated from explosions, collisions, or faulty payload assembly.

Loading next visibility...
Identifier
2877, 1967-065C
Orbit
LEO
Last TLE update
3 days ago
Origin
Manufacturer
BOKT/THKE
Mission
Spacecraft
Bus & Motor
STAR 13, STAR 13
Mass
58 kg wet, 25 kg dry
Launch date (UTC)
1967-06-29 (58 years ago)
Launch vehicle
Unknown
Launch site
Air Force Western Test Range (AFWTR)
Object type
Payload
Rocket body
Debris
Shape & HBR
Sphere + 1 Nozzle, 0.7 m
Radar Cross Section
0.385 m², Medium (>0.1 m² and < 1m²)

Expand to show TLE details & history

TLE from 3 days ago
0 THOR BURNER 2 R/B
1 02877U 67065C   25181.32016080  .00000009  00000-0  45835-2 0  9991
2 02877  90.0043 313.7645 0067122  70.1010 290.7043  8.36608851771553
Epoch: 2025-06-30T07:41Z
TLE epoch observation values (Epoch: 2025-06-30T07:41:01.893Z)
Latitude
-0.00004°
Longitude
-80.12505°
Altitude
3,850.003 km
Speed
6.251 km/s
True Right ascension
20h 55m 03s
True Declination
0° 00' 00"
Sunlit
Object was in daylight at epoch
Visualization orbit readout
Latitude
-8.41399°
Longitude
99.87477°
Altitude
3,910.724 km
Speed
6.214 km/s
Apparent Right ascension
09h 45m 32s
Apparent Declination
-21° 17' 09"
Sunlit
Object is in daylight
Visualization observer readout
Local Sidereal Time
23:33:33
Azimuth
58.993° ENE
Elevation
-60.422°
Doppler factor
1
Orbital elements
Apogee altitude
3,938.42 km
Perigee altitude
3,800.85 km
Semi-major axis
10,247.772 km
Eccentricity
0.00671
Inclination
90.0043°
RAAN
313.7645°
Arg. of periapsis
70.101°
True anomaly
Unknown
Mean anomaly
290.7043°
Eccentric anomaly
Unknown
Mean motion
2.09218 °/min
Orbital period
172.07 mins
BSTAR
0.0045835
Loading maneuver chart data...
Loading SW <> Apogee altitude chart data...
Loading historical data...
Loading historical data...
Loading historical data...
Loading historical data...
Loading historical data...
Loading historical data...
Loading historical data...
Other satellites on launch #65 in the year 1967 (1967-06-29 UTC)

THOR BURNER 2 R/B Visibility forecast

Observer location: undefined°, undefined°

Span
Click to sort rows by Start time (UTC) header in descending order
Start Az.
Max El. time (UTC)
Max El. Az.
Max El.
End time (UTC)
End Az.
38 mins2025-07-03 19:41:00.251Z5.024° NNE2025-07-03 20:00:00.251Z80.468° E40.227°2025-07-03 20:19:00.251Z161.217° S
33 mins2025-07-03 22:35:00.251Z352.185° N2025-07-03 22:50:00.251Z294.702° NW34.463°2025-07-03 23:08:00.251Z228.33° WSW
28 mins2025-07-04 06:32:00.251Z110.718° ESE2025-07-04 06:45:00.251Z63.134° ENE27.626°2025-07-04 07:00:00.251Z9.103° NNE
37 mins2025-07-04 09:16:00.251Z184.485° SSW2025-07-04 09:34:00.251Z273.783° WNW44.042°2025-07-04 09:53:00.251Z356.905° N
|